STARLINK-34645, 64766

Orbit data source: Space-Track

STARLINK-34645, 64766 is a payload satellite owned by SpaceX/Seattle (US) in LEO that was launched on Tue, 08 Jul 2025 UTC via an FALCON 9 launch vehicle from the Air Force Eastern Test Range (AFETR). Payload-class satellites include a variety of spacecraft equipped with specific instruments for various scientific and technological missions. These include communications satellites like Starlink; space stations such as the ISS; scientific satellites like the Hubble; Earth observation satellites from companies like Planet Labs, Umbra, and HawkEye 360; GPS; miniature CubeSats for education and research; and military/defense satellites.

Loading next visibility...
Identifier
64766, 2025-147M
Orbit
LEO
Country
Flag of USUS
Related business
Manufacturer
SpaceX/Seattle
Mission
Operational Commercial Communications
Bus & Motor
STARLINK V2MO, Unknown motor
Mass
575 kg wet, ~530 kg dry
Launch date (UTC)
2025-07-08 (11 months ago)
Launch vehicle
FALCON 9
Launch site
Air Force Eastern Test Range (AFETR)
Object type
Payload
Rocket body
Debris
Shape & HBR
Box + 2 Pan, 17.7 m
Radar Cross Section
36.964 m², Large (>1 m²)

Expand to show TLE details & history
Last TLE update: 2 days ago

TLE from 2 days ago
0 STARLINK-34645
1 64766U 25147M   26170.10245416  .00011020  00000-0  38361-3 0  9995
2 64766  53.1598 132.0417 0001377  96.9899 263.1258 15.30203333 54276
Epoch: 2026-06-19T02:27Z
TLE epoch observation values (Epoch: 2026-06-19T02:27:32.039Z)
Latitude
-0.00005°
Longitude
-172.17808°
Altitude
476.218 km
Speed
7.629 km/s
True Right ascension
08h 48m 09s
True Declination
0° 00' 00"
Sunlit
Object was in daylight at epoch
Visualization orbit readout
Latitude
Unknown
Longitude
Unknown
Altitude
Unknown
Speed
Unknown
Apparent Right ascension
Unknown
Apparent Declination
Unknown
Sunlit
N/A
Visualization observer readout
Local Sidereal Time
07:22:45
Azimuth
Unknown
Elevation
Unknown
Doppler factor
Unknown
Orbital elements
Apogee altitude
476.405 km
Perigee altitude
474.518 km
Semi-major axis
6,853.599 km
Eccentricity
0.00014
Inclination
53.1598°
RAAN
132.0417°
Arg. of periapsis
96.9899°
True anomaly
263.11013°
Mean anomaly
263.1258°
Eccentric anomaly
263.11797°
Mean motion
3.8253 °/min
Orbital period
94.11 mins
BSTAR
0.00038361
Loading maneuver chart data...
Computing Atmospheric mass density...
Loading historical data...
Loading historical data...
Loading historical data...
Loading historical data...
Loading historical data...
Loading historical data...
Loading historical data...

Documentation

Showing up to 5 results
|